CW5019 Weather Reports


time (UTC)temp
F
wind
direction
speed
knots
gust
knots
rain 1hr
in
rain 24hr
in
rain mn
in
humidity
%
barometer
mb
20260509224310 87 320 0.0 0.0 0.00 0.00 0.00 69 1006.7
20260509223807 87 320 0.0 0.0 0.00 0.00 0.00 68 1006.6
20260509223304 89 320 0.0 0.0 0.00 0.00 0.00 66 1006.6
20260509222801 91 320 0.0 0.0 0.00 0.00 0.00 63 1006.4
20260509222256 93 321 0.0 0.0 0.00 0.00 0.00 61 1006.5
20260509221752 93 320 0.0 0.0 0.00 0.00 0.00 59 1006.5
20260509221249 92 296 0.0 0.0 0.00 0.00 0.00 59 1006.4
20260509220744 91 328 0.0 0.0 0.00 0.00 0.00 62 1006.5
20260509220241 90 352 0.0 0.0 0.00 0.00 0.00 64 1006.7
20260509215736 92 347 0.0 0.0 0.00 0.00 0.00 62 1006.5
20260509215234 93 341 0.0 0.0 0.00 0.00 0.00 61 1006.5
20260509214731 93 336 0.0 0.0 0.00 0.00 0.00 62 1006.4
20260509214228 93 325 0.9 0.9 0.00 0.00 0.00 58 1006.6
20260509213724 93 359 0.0 0.9 0.00 0.00 0.00 59 1006.5
20260509213220 93 352 0.0 0.0 0.00 0.00 0.00 59 1006.5
20260509212718 92 334 0.0 0.0 0.00 0.00 0.00 58 1006.6
20260509212215 92 328 0.0 0.0 0.00 0.00 0.00 59 1006.7
20260509211711 93 7 0.0 0.0 0.00 0.00 0.00 61 1006.6
20260509211208 93 349 0.0 0.0 0.00 0.00 0.00 58 1006.7
20260509210704 91 330 0.0 0.0 0.00 0.00 0.00 61 1006.6
20260509210202 91 93 0.0 0.0 0.00 0.00 0.00 62 1006.9
20260509205701 91 335 0.0 0.0 0.00 0.00 0.00 61 1007.0
20260509205200 90 310 0.0 0.0 0.00 0.00 0.00 64 1007.0
20260509204657 90 355 0.0 0.0 0.00 0.00 0.00 64 1007.1
20260509204153 91 347 0.0 0.0 0.00 0.00 0.00 65 1007.1
20260509203649 91 29 0.0 0.0 0.00 0.00 0.00 65 1007.2
20260509203148 92 355 0.0 0.9 0.00 0.00 0.00 62 1007.3
20260509202643 91 344 0.0 0.0 0.00 0.00 0.00 64 1007.4
20260509202138 91 353 0.9 0.9 0.00 0.00 0.00 65 1007.4
20260509201633 91 346 0.0 0.0 0.00 0.00 0.00 65 1007.3
20260509201131 90 356 0.0 0.0 0.00 0.00 0.00 66 1007.4
20260509200627 90 35 0.0 0.0 0.00 0.00 0.00 66 1007.3
20260509200122 90 323 0.9 0.9 0.00 0.00 0.00 66 1007.6
20260509195618 89 321 0.0 0.9 0.00 0.00 0.00 65 1007.5
20260509195113 89 336 0.0 0.0 0.00 0.00 0.00 67 1007.9
20260509194612 89 59 0.9 0.9 0.00 0.00 0.00 67 1007.8
20260509194110 88 351 0.0 0.9 0.00 0.00 0.00 69 1007.9
20260509193606 86 1 0.9 0.9 0.00 0.00 0.00 69 1007.6
20260509193102 88 149 1.7 1.7 0.00 0.00 0.00 70 1007.8
20260509192559 89 51 0.0 0.0 0.00 0.00 0.00 70 1007.8
20260509192054 88 322 0.9 1.7 0.00 0.00 0.00 67 1007.8
20260509191554 89 349 0.0 0.9 0.00 0.00 0.00 68 1007.9
20260509191050 87 347 0.0 0.9 0.00 0.00 0.00 71 1008.2
20260509190547 86 3 0.0 0.0 0.00 0.00 0.00 74 1008.4
20260509190045 86 24 0.0 0.9 0.00 0.00 0.00 73 1008.3
20260509185543 86 50 0.0 0.0 0.00 0.00 0.00 75 1008.4
20260509185038 86 125 0.0 0.0 0.00 0.00 0.00 75 1008.5
20260509184537 86 319 0.9 1.7 0.00 0.00 0.00 72 1008.6
20260509184033 87 323 0.9 1.7 0.00 0.00 0.00 71 1008.5
20260509183528 86 155 0.9 0.9 0.00 0.00 0.00 74 1008.7
20260509183025 86 14 0.0 0.0 0.00 0.00 0.00 74 1008.7
20260509182521 86 331 0.0 0.0 0.00 0.00 0.00 74 1008.6
20260509182018 86 300 0.0 0.9 0.00 0.00 0.00 74 1008.8
20260509181516 85 335 0.9 0.9 0.00 0.00 0.00 76 1009.0
20260509181014 83 335 0.0 0.0 0.00 0.00 0.00 77 1009.1
20260509180508 83 41 0.0 0.0 0.00 0.00 0.00 78 1009.3
20260509180007 84 144 0.9 0.9 0.00 0.00 0.00 77 1009.2
20260509175502 83 15 0.0 0.0 0.00 0.00 0.00 77 1009.3
20260509174959 84 269 0.0 0.0 0.00 0.00 0.00 77 1009.4
20260509174455 84 349 0.0 0.0 0.00 0.00 0.00 76 1009.4
20260509173950 84 328 0.0 0.0 0.00 0.00 0.00 78 1009.4
20260509173450 83 11 0.0 0.0 0.00 0.00 0.00 79 1009.6
20260509172947 83 13 0.0 0.9 0.00 0.00 0.00 78 1009.4
20260509172444 83 330 0.0 0.0 0.00 0.00 0.00 78 1009.4
20260509171940 83 290 0.0 0.0 0.00 0.00 0.00 79 1009.3
20260509171436 83 288 0.0 0.0 0.00 0.00 0.00 80 1009.5
20260509170933 83 288 0.0 0.0 0.00 0.00 0.00 80 1009.2
20260509170429 82 298 0.0 0.0 0.00 0.00 0.00 81 1009.3
20260509165925 82 298 0.0 0.0 0.00 0.00 0.00 82 1009.3
20260509165424 82 298 0.0 0.9 0.00 0.00 0.00 81 1009.6
20260509164920 81 298 0.0 0.0 0.00 0.00 0.00 83 1009.3
20260509164416 80 297 0.0 0.9 0.00 0.00 0.00 84 1009.5
20260509163912 80 324 0.0 0.0 0.00 0.00 0.00 83 1009.3
20260509163410 80 339 0.9 0.9 0.00 0.00 0.00 85 1009.2
20260509162909 79 1 0.0 0.0 0.00 0.00 0.00 87 1008.9
20260509162408 79 13 0.0 0.0 0.00 0.00 0.00 89 1009.2
20260509161903 78 342 0.9 1.7 0.00 0.00 0.00 89 1009.3
20260509161400 78 347 0.0 0.0 0.00 0.00 0.00 90 1009.4
20260509160855 78 356 0.0 0.0 0.00 0.00 0.00 90 1009.5
20260509160351 78 356 0.0 0.0 0.00 0.00 0.00 91 1009.4
20260509155846 78 355 0.0 0.0 0.00 0.00 0.00 91 1009.5
20260509155343 78 346 0.0 0.0 0.00 0.00 0.00 90 1009.7
20260509154840 77 342 0.0 0.0 0.00 0.00 0.00 91 1009.9
20260509154337 77 342 0.0 0.0 0.00 0.00 0.00 91 1009.9
20260509153833 77 352 0.0 0.0 0.00 0.00 0.00 92 1009.8
20260509153330 77 0 0.0 0.0 0.00 0.00 0.00 92 1009.8
20260509152827 77 351 0.0 0.0 0.00 0.00 0.00 92 1009.6
20260509152323 77 351 0.0 0.0 0.00 0.00 0.00 93 1009.9
20260509151821 76 347 0.0 0.0 0.00 0.00 0.00 94 1009.7
20260509151316 76 339 0.0 0.0 0.00 0.00 0.00 95 1009.8
20260509150815 76 2 0.0 0.0 0.00 0.00 0.00 95 1009.6
20260509150312 76 339 0.0 0.0 0.00 0.00 0.00 95 1009.9
20260509145809 75 341 0.9 0.9 0.00 0.00 0.00 95 1009.5
20260509145309 75 342 0.0 0.0 0.00 0.00 0.00 95 1009.4
20260509144806 75 1 0.0 0.0 0.00 0.00 0.00 95 1009.5
20260509144303 75 1 0.0 0.0 0.00 0.00 0.00 95 1009.4
20260509143800 75 1 0.0 0.0 0.00 0.00 0.00 95 1009.3
20260509143258 74 1 0.0 0.0 0.00 0.00 0.00 95 1009.4
20260509142753 74 1 0.0 0.0 0.00 0.00 0.00 95 1009.3
20260509142249 74 0 0.0 0.0 0.00 0.00 0.00 95 1009.2
20260509141745 74 0 0.0 0.0 0.00 0.00 0.00 95 1008.7
20260509141243 74 0 0.0 0.0 0.00 0.00 0.00 95 1009.0
20260509140739 74 0 0.0 0.0 0.00 0.00 0.00 95 1009.0
20260509140236 74 353 0.0 0.0 0.00 0.00 0.00 95 1009.1
20260509135734 74 353 0.0 0.0 0.00 0.00 0.00 95 1009.0
20260509135232 74 353 0.0 0.0 0.00 0.00 0.00 95 1008.9
20260509134728 74 351 0.0 0.0 0.00 0.00 0.00 95 1009.2
20260509134226 74 351 0.0 0.0 0.00 0.00 0.00 95 1009.3
20260509133723 74 333 0.0 0.0 0.00 0.00 0.00 95 1009.4
20260509133219 74 357 0.0 0.0 0.00 0.00 0.00 95 1009.5
20260509132718 74 357 0.0 0.0 0.00 0.00 0.00 95 1009.6
20260509132216 74 339 0.0 0.0 0.00 0.00 0.00 95 1009.5
20260509131713 74 341 0.0 0.0 0.00 0.00 0.00 95 1009.9
20260509131209 74 341 0.0 0.0 0.00 0.00 0.00 95 1009.6
20260509130705 74 341 0.0 0.0 0.00 0.00 0.00 95 1009.4
20260509130201 73 341 0.0 0.0 0.00 0.00 0.00 95 1009.5
20260509125658 73 341 0.0 0.0 0.00 0.00 0.00 95 1009.4
20260509125155 73 341 0.0 0.0 0.00 0.00 0.00 95 1009.2
20260509124651 73 341 0.0 0.0 0.00 0.00 0.00 95 1009.5
20260509124148 73 341 0.0 0.0 0.00 0.00 0.00 95 1009.6
20260509123646 73 341 0.0 0.0 0.00 0.00 0.00 95 1009.4
20260509123143 73 341 0.0 0.0 0.00 0.00 0.00 95 1009.6
20260509122638 73 341 0.0 0.0 0.00 0.00 0.00 95 1009.5
20260509122136 73 341 0.0 0.0 0.00 0.00 0.00 95 1009.2
20260509121632 73 341 0.0 0.0 0.00 0.00 0.00 95 1009.3
20260509121130 73 341 0.0 0.0 0.00 0.00 0.00 95 1009.3
20260509120628 73 341 0.0 0.0 0.00 0.00 0.00 95 1009.2
20260509120126 73 341 0.0 0.0 0.00 0.00 0.00 95 1009.3
20260509115623 73 341 0.0 0.0 0.00 0.00 0.00 95 1009.0
20260509115121 72 341 0.0 0.0 0.00 0.00 0.00 95 1008.9
20260509114618 72 341 0.0 0.0 0.00 0.00 0.00 95 1009.0
20260509114117 73 342 0.0 0.0 0.00 0.00 0.00 95 1008.7
20260509113615 72 342 0.0 0.0 0.00 0.00 0.00 95 1008.9
20260509113112 72 342 0.0 0.0 0.00 0.00 0.00 95 1008.9
20260509112609 72 342 0.0 0.0 0.00 0.00 0.00 95 1008.8
20260509112106 72 70 0.0 0.0 0.00 0.00 0.00 95 1008.8
20260509111603 72 346 0.0 0.0 0.00 0.00 0.00 95 1008.7
20260509111100 72 2 0.0 0.0 0.00 0.00 0.00 95 1008.7
20260509110557 72 354 0.0 0.0 0.00 0.00 0.00 95 1008.8
20260509110054 72 353 0.0 0.0 0.00 0.00 0.00 95 1009.0
20260509105552 72 353 0.0 0.0 0.00 0.00 0.00 95 1009.0
20260509105049 72 354 0.0 0.0 0.00 0.00 0.00 95 1009.1
20260509104546 72 339 0.0 0.0 0.00 0.00 0.00 95 1009.3
20260509104043 72 339 0.0 0.0 0.00 0.00 0.00 95 1009.5
20260509103541 72 339 0.0 0.0 0.00 0.00 0.00 95 1009.1
20260509103039 72 339 0.0 0.0 0.00 0.00 0.00 95 1009.0
20260509102536 72 339 0.0 0.0 0.00 0.00 0.00 95 1009.2
20260509102032 72 339 0.0 0.0 0.00 0.00 0.00 95 1009.0
20260509101529 72 329 0.0 0.0 0.00 0.00 0.00 95 1008.9
20260509101026 72 338 0.0 0.0 0.00 0.00 0.00 95 1008.5
20260509100523 72 338 0.0 0.0 0.00 0.00 0.00 95 1008.4
20260509100020 72 338 0.0 0.0 0.00 0.00 0.00 95 1008.4
20260509095517 72 338 0.0 0.0 0.00 0.00 0.00 95 1008.3
20260509095014 72 338 0.0 0.0 0.00 0.00 0.00 95 1008.3
20260509094510 72 338 0.0 0.0 0.00 0.00 0.00 95 1008.3
20260509094008 72 338 0.0 0.0 0.00 0.00 0.00 95 1008.3
20260509093506 72 338 0.0 0.0 0.00 0.00 0.00 95 1008.4
20260509093003 72 338 0.0 0.0 0.00 0.00 0.00 95 1008.6
20260509092501 72 338 0.0 0.0 0.00 0.00 0.00 95 1008.8
20260509091959 72 338 0.0 0.0 0.00 0.00 0.00 95 1008.7
20260509091456 72 338 0.0 0.0 0.00 0.00 0.00 95 1008.6
20260509090953 72 345 0.0 0.0 0.00 0.00 0.00 95 1008.6
20260509090450 72 345 0.0 0.0 0.00 0.00 0.00 95 1008.8
20260509085942 72 345 0.0 0.0 0.00 0.00 0.00 95 1008.8
20260509085438 72 345 0.0 0.0 0.00 0.00 0.00 95 1008.9
20260509084934 72 345 0.0 0.0 0.00 0.00 0.00 95 1008.9
20260509084431 72 345 0.0 0.0 0.00 0.00 0.00 95 1008.9
20260509083929 72 345 0.0 0.0 0.00 0.00 0.00 95 1008.9
20260509083426 72 345 0.0 0.0 0.00 0.00 0.00 95 1008.8
20260509082923 72 345 0.0 0.0 0.00 0.00 0.00 95 1009.0
20260509082421 72 345 0.0 0.0 0.00 0.00 0.00 95 1009.0
20260509081917 72 345 0.0 0.0 0.00 0.00 0.00 95 1009.1
20260509081414 72 345 0.0 0.0 0.00 0.00 0.00 95 1009.1
20260509080911 72 345 0.0 0.0 0.00 0.00 0.00 95 1009.0
20260509080409 72 346 0.0 0.0 0.00 0.00 0.00 95 1008.9
20260509075908 72 346 0.0 0.0 0.00 0.00 0.00 95 1008.7
20260509075404 72 262 0.0 0.0 0.00 0.00 0.00 95 1008.9
20260509074901 72 3 0.0 0.0 0.00 0.00 0.00 95 1008.8
20260509074359 72 4 0.0 0.0 0.00 0.00 0.00 95 1008.9
20260509073855 72 4 0.0 0.0 0.00 0.00 0.00 95 1008.6
20260509073352 72 4 0.0 0.0 0.00 0.00 0.00 95 1008.7
20260509072848 72 4 0.0 0.0 0.00 0.00 0.00 95 1008.6
20260509072345 72 353 0.0 0.0 0.00 0.00 0.00 95 1008.9
20260509071841 72 353 0.0 0.0 0.00 0.00 0.00 95 1008.8
20260509071339 72 353 0.0 0.0 0.00 0.00 0.00 95 1008.8
20260509070836 72 353 0.0 0.0 0.00 0.00 0.00 95 1008.9
20260509070332 72 353 0.0 0.0 0.00 0.00 0.00 95 1009.0
20260509065829 72 353 0.0 0.0 0.00 0.00 0.00 95 1008.8
20260509065325 72 353 0.0 0.0 0.00 0.00 0.00 95 1008.8
20260509064821 72 353 0.0 0.0 0.00 0.00 0.00 95 1008.9
20260509064319 72 353 0.0 0.0 0.00 0.00 0.00 95 1008.8
20260509063816 72 352 0.0 0.0 0.00 0.00 0.00 95 1008.9
20260509063312 72 352 0.0 0.0 0.00 0.00 0.00 95 1009.0
20260509062810 72 352 0.0 0.0 0.00 0.00 0.00 95 1008.8
20260509062307 72 346 0.0 0.0 0.00 0.00 0.00 95 1009.0
20260509061803 72 346 0.0 0.0 0.00 0.00 0.00 95 1009.2
20260509061301 72 345 0.0 0.0 0.00 0.00 0.00 95 1009.2
20260509060758 72 345 0.0 0.0 0.00 0.00 0.00 95 1009.3
20260509060255 72 345 0.0 0.0 0.00 0.00 0.00 95 1009.3
20260509055751 71 345 0.0 0.0 0.00 0.00 0.00 95 1009.2
20260509055247 72 345 0.0 0.0 0.00 0.00 0.00 95 1009.4
20260509054743 71 342 0.0 0.0 0.00 0.00 0.00 95 1009.3
20260509054240 71 342 0.0 0.0 0.00 0.00 0.00 95 1009.4
20260509053739 72 351 0.0 0.0 0.00 0.00 0.00 95 1009.3
20260509053235 71 351 0.0 0.0 0.00 0.00 0.00 95 1009.4
20260509052733 71 351 0.0 0.0 0.00 0.00 0.00 95 1009.3
20260509052231 71 351 0.0 0.0 0.00 0.00 0.00 95 1009.4
20260509051728 71 352 0.0 0.0 0.00 0.00 0.00 95 1009.5
20260509051226 71 345 0.0 0.0 0.00 0.00 0.00 95 1009.3
20260509050722 71 18 0.0 0.0 0.00 0.00 0.00 95 1009.3
20260509050219 71 352 0.0 0.0 0.00 0.00 0.00 95 1009.3
20260509045716 71 3 0.0 0.0 0.00 0.00 0.00 95 1009.4
20260509045213 71 356 0.0 0.0 0.00 0.00 0.00 95 1009.4
20260509044710 71 356 0.0 0.0 0.00 0.00 0.00 95 1009.4
20260509044208 71 343 0.0 0.0 0.00 0.00 0.00 95 1009.4
20260509043704 71 342 0.0 0.0 0.00 0.00 0.00 95 1009.2
20260509043200 71 262 0.0 0.0 0.00 0.00 0.00 95 1009.1
20260509042657 71 359 0.0 0.0 0.00 0.00 0.00 95 1009.1
20260509042153 71 352 0.0 0.0 0.00 0.00 0.00 95 1009.3
20260509041649 71 352 0.0 0.0 0.00 0.00 0.00 95 1009.4
20260509041147 71 358 0.0 0.0 0.00 0.00 0.00 95 1009.4
20260509040645 71 354 0.0 0.0 0.00 0.00 0.00 95 1009.5
20260509040142 71 356 0.0 0.0 0.00 0.00 0.00 95 1009.3
20260509035639 71 358 0.0 0.0 0.00 0.00 0.00 95 1009.2
20260509035135 71 0 0.0 0.0 0.00 0.00 0.00 95 1009.1
20260509034633 71 359 0.0 0.0 0.00 0.00 0.00 95 1009.2
20260509034130 71 352 0.0 0.0 0.00 0.00 0.00 95 1009.4
20260509033627 71 353 0.0 0.0 0.00 0.00 0.00 95 1009.1
20260509033124 71 1 0.0 0.0 0.00 0.00 0.00 95 1009.1
20260509032621 71 350 0.0 0.0 0.00 0.00 0.00 95 1009.1
20260509032118 71 352 0.0 0.0 0.00 0.00 0.00 95 1009.1
20260509031616 71 338 0.0 0.0 0.00 0.00 0.00 95 1009.3
20260509031113 71 39 0.0 0.0 0.00 0.00 0.00 95 1009.0
20260509030611 72 343 0.0 0.0 0.00 0.00 0.00 95 1009.0
20260509030108 72 352 0.0 0.0 0.00 0.00 0.00 95 1009.3
20260509025604 72 352 0.0 0.0 0.00 0.00 0.00 95 1009.0
20260509025059 71 341 0.0 0.0 0.00 0.00 0.00 95 1009.0
20260509024555 72 342 0.0 0.0 0.00 0.00 0.00 95 1008.6
20260509024052 72 350 0.0 0.0 0.00 0.00 0.00 95 1008.6
20260509023550 72 338 0.0 0.0 0.00 0.00 0.00 95 1008.8
20260509023046 72 25 0.0 0.9 0.00 0.00 0.00 95 1008.7
20260509022543 72 332 0.9 0.9 0.00 0.00 0.00 95 1008.7
20260509022041 72 339 0.0 0.0 0.00 0.00 0.00 95 1008.6
20260509021537 72 345 0.0 0.0 0.00 0.00 0.00 95 1008.6
20260509021034 72 350 0.0 0.0 0.00 0.00 0.00 95 1008.5
20260509020533 72 7 0.0 0.0 0.00 0.00 0.00 95 1008.6
20260509020029 72 7 0.0 0.0 0.00 0.00 0.00 95 1008.7
20260509015528 73 7 0.0 0.9 0.00 0.00 0.00 95 1008.6
20260509015025 73 7 0.0 0.0 0.00 0.00 0.00 95 1008.5
20260509014522 73 7 0.0 0.0 0.00 0.00 0.00 95 1008.5
20260509014019 73 7 0.0 0.0 0.00 0.00 0.00 95 1008.6
20260509013516 73 7 0.0 0.0 0.00 0.00 0.00 95 1008.6
20260509013011 73 17 0.0 0.0 0.00 0.00 0.00 94 1008.7
20260509012508 73 354 0.0 0.0 0.00 0.00 0.00 94 1008.4
20260509012004 73 358 0.0 0.0 0.00 0.00 0.00 93 1008.3
20260509011502 73 6 0.9 0.9 0.00 0.00 0.00 93 1008.4
20260509010959 73 359 0.0 0.0 0.00 0.00 0.00 92 1008.3
20260509010457 73 341 0.0 0.9 0.00 0.00 0.00 92 1008.3
20260509005953 74 16 0.9 1.7 0.00 0.00 0.00 92 1008.2
20260509005452 74 343 0.0 0.9 0.00 0.00 0.00 92 1008.0
20260509004951 74 336 0.0 0.9 0.00 0.00 0.00 92 1008.1
20260509004448 74 349 0.0 0.0 0.00 0.00 0.00 91 1007.8
20260509003946 74 338 0.0 0.0 0.00 0.00 0.00 91 1008.0
20260509003444 74 343 0.0 0.9 0.00 0.00 0.00 91 1007.8
20260509002941 74 325 0.9 0.9 0.00 0.00 0.00 91 1008.1
20260509002438 75 334 0.9 1.7 0.00 0.00 0.00 90 1008.2
20260509001936 75 7 0.0 0.0 0.00 0.00 0.00 90 1008.3
20260509001432 75 0 0.0 0.0 0.00 0.00 0.00 90 1008.3
20260509000929 75 1 0.0 0.0 0.00 0.00 0.00 90 1008.5
20260509000427 75 7 0.0 0.0 0.00 0.00 0.00 89 1008.3
20260508235922 75 337 1.7 2.6 0.00 0.00 0.00 89 1008.2
20260508235420 75 350 0.0 0.9 0.00 0.00 0.00 89 1008.1
20260508234917 75 49 1.7 1.7 0.00 0.00 0.00 88 1008.4
20260508234414 76 339 0.0 0.0 0.00 0.00 0.00 88 1008.2
20260508233912 76 339 0.0 0.9 0.00 0.00 0.00 88 1008.3
20260508233411 76 8 0.0 0.0 0.00 0.00 0.00 88 1008.2
20260508232908 76 354 0.0 0.0 0.00 0.00 0.00 87 1008.3
20260508232405 76 342 0.0 0.0 0.00 0.00 0.00 88 1008.4
20260508231902 76 107 1.7 1.7 0.00 0.00 0.00 88 1008.2
20260508231358 76 349 0.0 0.0 0.00 0.00 0.00 88 1008.2
20260508230855 76 353 0.0 0.0 0.00 0.00 0.00 88 1008.5
20260508230351 76 358 0.0 0.9 0.00 0.00 0.00 88 1008.4
20260508225849 76 351 0.0 0.0 0.00 0.00 0.00 88 1008.3
20260508225345 76 38 1.7 2.6 0.00 0.00 0.00 87 1008.3
20260508224844 76 19 0.0 0.0 0.00 0.00 0.00 87 1008.4